DW1183 Weather Reports


Display with metric or nautical units.
time (UTC)temp
F
wind
direction
speed
MPH
gust
MPH
rain 1hr
in
rain 24hr
in
rain mn
in
humidity
%
barometer
mb
20260503001538 75 360 3.0 8.0 0.00 0.47 0.00 48 1019.2
20260503000041 76 5 2.0 9.0 0.00 0.47 0.00 47 1019.1
20260502234541 76 5 1.0 11.0 0.00 0.51 0.00 48 1019.0
20260502233035 76 26 1.0 10.0 0.00 0.51 0.00 48 1018.9
20260502231537 77 349 3.0 10.0 0.00 0.51 0.00 47 1018.8
20260502230033 77 313 1.0 8.0 0.00 0.51 0.00 47 1018.7
20260502224532 77 360 3.0 9.0 0.00 0.52 0.00 45 1018.6
20260502223037 77 302 2.0 7.0 0.00 0.52 0.00 47 1018.7
20260502221532 77 34 0.0 0.0 0.00 0.52 0.00 49 1018.7
20260502220030 76 335 2.0 11.0 0.00 0.52 0.00 46 1018.8
20260502214530 76 355 4.0 12.0 0.00 0.76 0.00 46 1018.9
20260502213028 76 84 5.0 13.0 0.00 0.76 0.00 46 1018.9
20260502211538 76 346 3.0 12.0 0.00 0.76 0.00 47 1018.8
20260502210033 75 22 2.0 13.0 0.00 0.76 0.00 49 1018.9
20260502204525 76 348 2.0 8.0 0.00 1.33 0.00 48 1019.0
20260502203024 75 42 3.0 12.0 0.00 1.33 0.00 47 1019.2
20260502201523 75 298 3.0 10.0 0.00 1.33 0.00 48 1019.4
20260502200024 75 360 2.0 11.0 0.00 1.33 0.00 49 1019.5
20260502194519 74 30 4.0 13.0 0.00 2.10 0.00 48 1019.5
20260502193018 74 5 6.0 16.0 0.00 2.10 0.00 51 1019.8
20260502191515 74 271 4.0 12.0 0.00 2.10 0.00 51 1020.1
20260502190010 73 355 3.0 8.0 0.00 2.10 0.00 53 1020.4
20260502184508 73 5 4.0 12.0 0.00 2.11 0.00 55 1020.5
20260502183006 72 307 4.0 9.0 0.00 2.11 0.00 57 1020.6
20260502181509 72 17 5.0 11.0 0.00 2.11 0.00 57 1020.8
20260502163051 68 51 6.0 12.0 0.00 3.29 0.00 68 1021.0
20260502161542 67 10 4.0 11.0 0.00 3.29 0.00 69 1021.0
20260502151520 64 301 4.0 14.0 0.00 3.34 0.00 76 1020.7
20260502123043 56 11 3.0 11.0 0.00 3.46 0.00 88 1019.0
20260502121539 55 360 4.0 11.0 0.00 3.46 0.00 88 1018.8
20260502114536 55 18 3.0 10.0 0.00 3.49 0.00 88 1018.4
20260502113035 56 22 2.0 8.0 0.00 3.49 0.00 88 1018.4
20260502111534 55 320 2.0 11.0 0.00 3.49 0.00 88 1018.3
20260502110036 55 11 4.0 9.0 0.00 3.49 0.00 87 1018.1
20260502104528 55 31 1.0 9.0 0.00 3.49 0.00 88 1017.8
20260502103032 56 323 1.0 5.0 0.00 3.49 0.00 87 1017.5
20260502101542 56 12 2.0 6.0 0.00 3.49 0.00 87 1017.2
20260502091518 56 334 1.0 8.0 0.00 3.49 0.00 88 1016.4
20260502071510 57 15 5.0 15.0 0.00 3.49 0.00 90 1016.3
20260502070011 57 9 4.0 13.0 0.00 3.49 0.00 90 1016.1
20260502064506 57 355 6.0 13.0 0.00 3.50 0.00 90 1016.0
20260502063005 57 28 4.0 15.0 0.00 3.50 0.00 90 1016.0
20260502061505 58 19 6.0 14.0 0.00 3.50 0.00 90 1015.9
20260502060005 57 90 4.0 12.0 0.00 3.50 0.00 90 1015.8
20260502054600 57 18 5.0 14.0 0.00 3.93 0.00 91 1015.9
20260502053059 57 343 3.0 11.0 0.00 3.93 0.00 92 1016.5
20260502051626 57 348 5.0 13.0 0.00 3.93 0.00 92 1016.1
20260502050056 57 355 5.0 16.0 0.00 3.93 0.00 92 1016.3
20260502044549 56 313 7.0 15.0 0.02 3.95 3.93 93 1016.3
20260502043051 57 5 4.0 14.0 0.02 3.95 3.93 93 1016.3
20260502041545 57 336 2.0 9.0 0.02 3.95 3.93 93 1016.2
20260502040053 57 55 3.0 11.0 0.03 3.95 3.93 93 1015.8
20260502034540 58 15 1.0 8.0 0.02 3.93 3.91 94 1015.6
20260502033041 57 11 6.0 15.0 0.04 3.93 3.91 93 1014.8
20260502031536 58 20 5.0 12.0 0.05 3.93 3.91 94 1014.5
20260502030033 58 19 7.0 17.0 0.05 3.92 3.90 94 1013.9
20260502024535 58 296 3.0 10.0 0.03 3.90 3.88 94 1014.4
20260502023027 59 355 3.0 9.0 0.05 3.89 3.87 94 1014.3
20260502021526 59 42 2.0 14.0 0.08 3.88 3.86 94 1014.3
20260502020024 59 40 3.0 10.0 0.07 3.87 3.85 94 1014.2
20260502014521 59 31 3.0 10.0 0.13 3.89 3.85 94 1013.9
20260502013020 59 350 2.0 11.0 0.17 3.85 3.81 94 1013.4
20260502011524 60 24 2.0 8.0 0.27 3.82 3.78 94 1013.1
20260502010018 60 5 3.0 11.0 0.31 3.82 3.78 94 1011.6
20260502004517 60 350 4.0 12.0 0.27 3.84 3.72 94 1011.8
20260502003016 60 59 2.0 12.0 0.19 3.75 3.63 94 1012.3